Year,Month,Day,Hour,Minute,Value (Times are PST for temperature in C)
2018,02,19,00,00,-2.40
2018,02,19,00,01,-2.40
2018,02,19,00,02,-2.40
2018,02,19,00,03,-2.50
2018,02,19,00,04,-2.50
2018,02,19,00,05,-2.50
2018,02,19,00,06,-2.50
2018,02,19,00,07,-2.50
2018,02,19,00,08,-2.50
2018,02,19,00,09,-2.50
2018,02,19,00,10,-2.50
2018,02,19,00,11,-2.50
2018,02,19,00,12,-2.50
2018,02,19,00,13,-2.50
2018,02,19,00,14,-2.50
2018,02,19,00,15,-2.50
2018,02,19,00,16,-2.50
2018,02,19,00,17,-2.50
2018,02,19,00,18,-2.50
2018,02,19,00,19,-2.50
2018,02,19,00,20,-2.50
2018,02,19,00,21,-2.60
2018,02,19,00,22,-2.60
2018,02,19,00,23,-2.60
2018,02,19,00,24,-2.60
2018,02,19,00,25,-2.60
2018,02,19,00,26,-2.60
2018,02,19,00,27,-2.60
2018,02,19,00,28,-2.60
2018,02,19,00,29,-2.70
2018,02,19,00,30,-2.70
2018,02,19,00,31,-2.70
2018,02,19,00,32,-2.70
2018,02,19,00,33,-2.80
2018,02,19,00,34,-2.80
2018,02,19,00,35,-2.80
2018,02,19,00,36,-2.80
2018,02,19,00,37,-2.90
2018,02,19,00,38,-2.90
2018,02,19,00,39,-2.90
2018,02,19,00,40,-2.90
2018,02,19,00,41,-2.90
2018,02,19,00,42,-2.90
2018,02,19,00,43,-2.90
2018,02,19,00,44,-3.00
2018,02,19,00,45,-3.00
2018,02,19,00,46,-3.00
2018,02,19,00,47,-3.00
2018,02,19,00,48,-3.00
2018,02,19,00,49,-3.00
2018,02,19,00,50,-3.00
2018,02,19,00,51,-3.00
2018,02,19,00,52,-2.90
2018,02,19,00,53,-2.90
2018,02,19,00,54,-2.90
2018,02,19,00,55,-2.90
2018,02,19,00,56,-2.90
2018,02,19,00,57,-2.90
2018,02,19,00,58,-2.90
2018,02,19,00,59,-2.90
2018,02,19,01,00,-2.90
2018,02,19,01,01,-2.90
2018,02,19,01,02,-2.90
2018,02,19,01,03,-2.90
2018,02,19,01,04,-2.90
2018,02,19,01,05,-2.80
2018,02,19,01,06,-2.80
2018,02,19,01,07,-2.80
2018,02,19,01,08,-2.80
2018,02,19,01,09,-2.80
2018,02,19,01,10,-2.80
2018,02,19,01,11,-2.80
2018,02,19,01,12,-2.80
2018,02,19,01,13,-2.80
2018,02,19,01,14,-2.80
2018,02,19,01,15,-2.80
2018,02,19,01,16,-2.80
2018,02,19,01,17,-2.80
2018,02,19,01,18,-2.80
2018,02,19,01,19,-2.80
2018,02,19,01,20,-2.80
2018,02,19,01,21,-2.80
2018,02,19,01,22,-2.80
2018,02,19,01,23,-2.80
2018,02,19,01,24,-2.80
2018,02,19,01,25,-2.80
2018,02,19,01,26,-2.80
2018,02,19,01,27,-2.80
2018,02,19,01,28,-2.80
2018,02,19,01,29,-2.80
2018,02,19,01,30,-2.80
2018,02,19,01,31,-2.80
2018,02,19,01,32,-2.70
2018,02,19,01,33,-2.70
2018,02,19,01,34,-2.70
2018,02,19,01,35,-2.70
2018,02,19,01,36,-2.70
2018,02,19,01,37,-2.80
2018,02,19,01,38,-2.80
2018,02,19,01,39,-2.80
2018,02,19,01,40,-2.80
2018,02,19,01,41,-2.80
2018,02,19,01,42,-2.80
2018,02,19,01,43,-2.80
2018,02,19,01,44,-2.80
2018,02,19,01,45,-2.80
2018,02,19,01,46,-2.80
2018,02,19,01,47,-2.80
2018,02,19,01,48,-2.80
2018,02,19,01,49,-2.80
2018,02,19,01,50,-2.80
2018,02,19,01,51,-2.80
2018,02,19,01,52,-2.80
2018,02,19,01,53,-2.80
2018,02,19,01,54,-2.80
2018,02,19,01,55,-2.80
2018,02,19,01,56,-2.80
2018,02,19,01,57,-2.80
2018,02,19,01,58,-2.80
2018,02,19,01,59,-2.80
2018,02,19,02,00,-2.80
2018,02,19,02,01,-2.80
2018,02,19,02,02,-2.80
2018,02,19,02,03,-2.80
2018,02,19,02,04,-2.80
2018,02,19,02,05,-2.90
2018,02,19,02,06,-2.90
2018,02,19,02,07,-2.90
2018,02,19,02,08,-2.90
2018,02,19,02,09,-2.80
2018,02,19,02,10,-2.80
2018,02,19,02,11,-2.80
2018,02,19,02,12,-2.80
2018,02,19,02,13,-2.80
2018,02,19,02,14,-2.80
2018,02,19,02,15,-2.80
2018,02,19,02,16,-2.80
2018,02,19,02,17,-2.90
2018,02,19,02,18,-2.90
2018,02,19,02,19,-2.90
2018,02,19,02,20,-2.90
2018,02,19,02,21,-2.90
2018,02,19,02,22,-2.90
2018,02,19,02,23,-2.90
2018,02,19,02,24,-2.90
2018,02,19,02,25,-2.90
2018,02,19,02,26,-2.90
2018,02,19,02,27,-2.90
2018,02,19,02,28,-2.90
2018,02,19,02,29,-2.90
2018,02,19,02,30,-3.00
2018,02,19,02,31,-2.90
2018,02,19,02,32,-3.00
2018,02,19,02,33,-2.90
2018,02,19,02,34,-2.90
2018,02,19,02,35,-2.90
2018,02,19,02,36,-2.90
2018,02,19,02,37,-2.90
2018,02,19,02,38,-2.90
2018,02,19,02,39,-2.90
2018,02,19,02,40,-2.90
2018,02,19,02,41,-2.90
2018,02,19,02,42,-2.90
2018,02,19,02,43,-2.90
2018,02,19,02,44,-2.90
2018,02,19,02,45,-2.90
2018,02,19,02,46,-3.00
2018,02,19,02,47,-2.90
2018,02,19,02,48,-2.90
2018,02,19,02,49,-2.90
2018,02,19,02,50,-2.90
2018,02,19,02,51,-2.90
2018,02,19,02,52,-2.90
2018,02,19,02,53,-2.90
2018,02,19,02,54,-2.90
2018,02,19,02,55,-2.90
2018,02,19,02,56,-2.90
2018,02,19,02,57,-2.90
2018,02,19,02,58,-2.90
2018,02,19,02,59,-2.90
2018,02,19,03,00,-2.90
2018,02,19,03,01,-2.90
2018,02,19,03,02,-2.90
2018,02,19,03,03,-2.90
2018,02,19,03,04,-2.90
2018,02,19,03,05,-2.90
2018,02,19,03,06,-2.90
2018,02,19,03,07,-2.90
2018,02,19,03,08,-2.90
2018,02,19,03,09,-2.90
2018,02,19,03,10,-2.90
2018,02,19,03,11,-2.90
2018,02,19,03,12,-2.90
2018,02,19,03,13,-2.90
2018,02,19,03,14,-2.90
2018,02,19,03,15,-2.90
2018,02,19,03,16,-2.90
2018,02,19,03,17,-2.90
2018,02,19,03,18,-2.90
2018,02,19,03,19,-2.90
2018,02,19,03,20,-2.90
2018,02,19,03,21,-2.90
2018,02,19,03,22,-2.90
2018,02,19,03,23,-2.90
2018,02,19,03,24,-2.90
2018,02,19,03,25,-2.90
2018,02,19,03,26,-2.90
2018,02,19,03,27,-2.90
2018,02,19,03,28,-2.90
2018,02,19,03,29,-2.90
2018,02,19,03,30,-2.90
2018,02,19,03,31,-2.90
2018,02,19,03,32,-2.90
2018,02,19,03,33,-2.90
2018,02,19,03,34,-2.90
2018,02,19,03,35,-2.80
2018,02,19,03,36,-2.80
2018,02,19,03,37,-2.80
2018,02,19,03,38,-2.80
2018,02,19,03,39,-2.80
2018,02,19,03,40,-2.80
2018,02,19,03,41,-2.80
2018,02,19,03,42,-2.80
2018,02,19,03,43,-2.80
2018,02,19,03,44,-2.80
2018,02,19,03,45,-2.80
2018,02,19,03,46,-2.80
2018,02,19,03,47,-2.80
2018,02,19,03,48,-2.80
2018,02,19,03,49,-2.80
2018,02,19,03,50,-2.80
2018,02,19,03,51,-2.80
2018,02,19,03,52,-2.80
2018,02,19,03,53,-2.80
2018,02,19,03,54,-2.90
2018,02,19,03,55,-2.90
2018,02,19,03,56,-2.90
2018,02,19,03,57,-2.90
2018,02,19,03,58,-2.90
2018,02,19,03,59,-2.90
2018,02,19,04,00,-3.00
2018,02,19,04,01,-3.00
2018,02,19,04,02,-3.00
2018,02,19,04,03,-3.00
2018,02,19,04,04,-3.00
2018,02,19,04,05,-3.10
2018,02,19,04,06,-3.10
2018,02,19,04,07,-3.10
2018,02,19,04,08,-3.10
2018,02,19,04,09,-3.10
2018,02,19,04,10,-3.10
2018,02,19,04,11,-3.10
2018,02,19,04,12,-3.10
2018,02,19,04,13,-3.10
2018,02,19,04,14,-3.10
2018,02,19,04,15,-3.10
2018,02,19,04,16,-3.10
2018,02,19,04,17,-3.10
2018,02,19,04,18,-3.10
2018,02,19,04,19,-3.10
2018,02,19,04,20,-3.10
2018,02,19,04,21,-3.10
2018,02,19,04,22,-3.10
2018,02,19,04,23,-3.10
2018,02,19,04,24,-3.10
2018,02,19,04,25,-3.10
2018,02,19,04,26,-3.10
2018,02,19,04,27,-3.10
2018,02,19,04,28,-3.10
2018,02,19,04,29,-3.10
2018,02,19,04,30,-3.10
2018,02,19,04,31,-3.10
2018,02,19,04,32,-3.00
2018,02,19,04,33,-3.00
2018,02,19,04,34,-3.00
2018,02,19,04,35,-2.90
2018,02,19,04,36,-2.90
2018,02,19,04,37,-2.90
2018,02,19,04,38,-2.80
2018,02,19,04,39,-2.80
2018,02,19,04,40,-2.90
2018,02,19,04,41,-2.90
2018,02,19,04,42,-2.80
2018,02,19,04,43,-2.80
2018,02,19,04,44,-2.80
2018,02,19,04,45,-2.80
2018,02,19,04,46,-2.80
2018,02,19,04,47,-2.80
2018,02,19,04,48,-2.80
2018,02,19,04,49,-2.80
2018,02,19,04,50,-2.80
2018,02,19,04,51,-2.80
2018,02,19,04,52,-2.80
2018,02,19,04,53,-2.80
2018,02,19,04,54,-2.70
2018,02,19,04,55,-2.70
2018,02,19,04,56,-2.70
2018,02,19,04,57,-2.70
2018,02,19,04,58,-2.80
2018,02,19,04,59,-2.80
2018,02,19,05,00,-2.80
2018,02,19,05,01,-2.80
2018,02,19,05,02,-2.80
2018,02,19,05,03,-2.80
2018,02,19,05,04,-2.80
2018,02,19,05,05,-2.80
2018,02,19,05,06,-2.80
2018,02,19,05,07,-2.80
2018,02,19,05,08,-2.80
2018,02,19,05,09,-2.80
2018,02,19,05,10,-2.80
2018,02,19,05,11,-2.80
2018,02,19,05,12,-2.80
2018,02,19,05,13,-2.80
2018,02,19,05,14,-2.80
2018,02,19,05,15,-2.80
2018,02,19,05,16,-2.80
2018,02,19,05,17,-2.80
2018,02,19,05,18,-2.80
2018,02,19,05,19,-2.80
2018,02,19,05,20,-2.80
2018,02,19,05,21,-2.80
2018,02,19,05,22,-2.80
2018,02,19,05,23,-2.80
2018,02,19,05,24,-2.80
2018,02,19,05,25,-2.80
2018,02,19,05,26,-2.80
2018,02,19,05,27,-2.80
2018,02,19,05,28,-2.80
2018,02,19,05,29,-2.80
2018,02,19,05,30,-2.80
2018,02,19,05,31,-2.80
2018,02,19,05,32,-2.90
2018,02,19,05,33,-2.90
2018,02,19,05,34,-2.90
2018,02,19,05,35,-2.90
2018,02,19,05,36,-2.90
2018,02,19,05,37,-2.90
2018,02,19,05,38,-2.90
2018,02,19,05,39,-2.90
2018,02,19,05,40,-2.90
2018,02,19,05,41,-2.90
2018,02,19,05,42,-2.90
2018,02,19,05,43,-3.00
2018,02,19,05,44,-3.00
2018,02,19,05,45,-3.00
2018,02,19,05,46,-3.00
2018,02,19,05,47,-3.00
2018,02,19,05,48,-3.00
2018,02,19,05,49,-2.90
2018,02,19,05,50,-2.90
2018,02,19,05,51,-3.00
2018,02,19,05,52,-3.00
2018,02,19,05,53,-3.00
2018,02,19,05,54,-3.00
2018,02,19,05,55,-3.00
2018,02,19,05,56,-3.00
2018,02,19,05,57,-3.00
2018,02,19,05,58,-3.00
2018,02,19,05,59,-3.10
2018,02,19,06,00,-3.10
2018,02,19,06,01,-3.10
2018,02,19,06,02,-3.10
2018,02,19,06,03,-3.10
2018,02,19,06,04,-3.10
2018,02,19,06,05,-3.20
2018,02,19,06,06,-3.20
2018,02,19,06,07,-3.20
2018,02,19,06,08,-3.20
2018,02,19,06,09,-3.20
2018,02,19,06,10,-3.20
2018,02,19,06,11,-3.20
2018,02,19,06,12,-3.20
2018,02,19,06,13,-3.20
2018,02,19,06,14,-3.20
2018,02,19,06,15,-3.20
2018,02,19,06,16,-3.20
2018,02,19,06,17,-3.30
2018,02,19,06,18,-3.30
2018,02,19,06,19,-3.30
2018,02,19,06,20,-3.30
2018,02,19,06,21,-3.30
2018,02,19,06,22,-3.40
2018,02,19,06,23,-3.40
2018,02,19,06,24,-3.40
2018,02,19,06,25,-3.40
2018,02,19,06,26,-3.50
2018,02,19,06,27,-3.50
2018,02,19,06,28,-3.50
2018,02,19,06,29,-3.60
2018,02,19,06,30,-3.60
2018,02,19,06,31,-3.60
2018,02,19,06,32,-3.60
2018,02,19,06,33,-3.60
2018,02,19,06,34,-3.60
2018,02,19,06,35,-3.60
2018,02,19,06,36,-3.50
2018,02,19,06,37,-3.50
2018,02,19,06,38,-3.50
2018,02,19,06,39,-3.40
2018,02,19,06,40,-3.40
2018,02,19,06,41,-3.40
2018,02,19,06,42,-3.30
2018,02,19,06,43,-3.30
2018,02,19,06,44,-3.30
2018,02,19,06,45,-3.30
2018,02,19,06,46,-3.40
2018,02,19,06,47,-3.40
2018,02,19,06,48,-3.40
2018,02,19,06,49,-3.40
2018,02,19,06,50,-3.40
2018,02,19,06,51,-3.40
2018,02,19,06,52,-3.40
2018,02,19,06,53,-3.40
2018,02,19,06,54,-3.40
2018,02,19,06,55,-3.40
2018,02,19,06,56,-3.40
2018,02,19,06,57,-3.50
2018,02,19,06,58,-3.50
2018,02,19,06,59,-3.50
2018,02,19,07,00,-3.60
2018,02,19,07,01,-3.60
2018,02,19,07,02,-3.60
2018,02,19,07,03,-3.70
2018,02,19,07,04,-3.70
2018,02,19,07,05,-3.70
2018,02,19,07,06,-3.70
2018,02,19,07,07,-3.80
2018,02,19,07,08,-3.80
2018,02,19,07,09,-3.80
2018,02,19,07,10,-3.80
2018,02,19,07,11,-3.80
2018,02,19,07,12,-3.80
2018,02,19,07,13,-3.80
2018,02,19,07,14,-3.90
2018,02,19,07,15,-3.90
2018,02,19,07,16,-3.90
2018,02,19,07,17,-3.90
2018,02,19,07,18,-3.90
2018,02,19,07,19,-3.90
2018,02,19,07,20,-3.90
2018,02,19,07,21,-3.90
2018,02,19,07,22,-3.90
2018,02,19,07,23,-3.90
2018,02,19,07,24,-4.00
2018,02,19,07,25,-4.00
2018,02,19,07,26,-4.00
2018,02,19,07,27,-4.00
2018,02,19,07,28,-4.00
2018,02,19,07,29,-3.90
2018,02,19,07,30,-3.90
2018,02,19,07,31,-3.90
2018,02,19,07,32,-3.90
2018,02,19,07,33,-3.80
2018,02,19,07,34,-3.80
2018,02,19,07,35,-3.80
2018,02,19,07,36,-3.70
2018,02,19,07,37,-3.70
2018,02,19,07,38,-3.70
2018,02,19,07,39,-3.70
2018,02,19,07,40,-3.60
2018,02,19,07,41,-3.60
2018,02,19,07,42,-3.60
2018,02,19,07,43,-3.60
2018,02,19,07,44,-3.60
2018,02,19,07,45,-3.70
2018,02,19,07,46,-3.80
2018,02,19,07,47,-3.80
2018,02,19,07,48,-3.90
2018,02,19,07,49,-4.00
2018,02,19,07,50,-4.00
2018,02,19,07,51,-4.10
2018,02,19,07,52,-4.10
2018,02,19,07,53,-4.00
2018,02,19,07,54,-4.00
2018,02,19,07,55,-3.90
2018,02,19,07,56,-3.90
2018,02,19,07,57,-3.80
2018,02,19,07,58,-3.70
2018,02,19,07,59,-3.60
2018,02,19,08,00,-3.50
2018,02,19,08,01,-3.50
2018,02,19,08,02,-3.40
2018,02,19,08,03,-3.40
2018,02,19,08,04,-3.30
2018,02,19,08,05,-3.20
2018,02,19,08,06,-3.20
2018,02,19,08,07,-3.10
2018,02,19,08,08,-3.00
2018,02,19,08,09,-2.90
2018,02,19,08,10,-2.90
2018,02,19,08,11,-2.80
2018,02,19,08,12,-2.80
2018,02,19,08,13,-2.80
2018,02,19,08,14,-2.70
2018,02,19,08,15,-2.70
2018,02,19,08,16,-2.70
2018,02,19,08,17,-2.60
2018,02,19,08,18,-2.60
2018,02,19,08,19,-2.50
2018,02,19,08,20,-2.50
2018,02,19,08,21,-2.40
2018,02,19,08,22,-2.30
2018,02,19,08,23,-2.30
2018,02,19,08,24,-2.20
2018,02,19,08,25,-2.10
2018,02,19,08,26,-2.00
2018,02,19,08,27,-1.90
2018,02,19,08,28,-1.80
2018,02,19,08,29,-1.80
2018,02,19,08,30,-1.80
2018,02,19,08,31,-1.80
2018,02,19,08,32,-1.80
2018,02,19,08,33,-1.80
2018,02,19,08,34,-1.80
2018,02,19,08,35,-1.80
2018,02,19,08,36,-1.80
2018,02,19,08,37,-1.80
2018,02,19,08,38,-1.80
2018,02,19,08,39,-1.80
2018,02,19,08,40,-1.70
2018,02,19,08,41,-1.70
2018,02,19,08,42,-1.60
2018,02,19,08,43,-1.60
2018,02,19,08,44,-1.50
2018,02,19,08,45,-1.50
2018,02,19,08,46,-1.40
2018,02,19,08,47,-1.40
2018,02,19,08,48,-1.50
2018,02,19,08,49,-1.50
2018,02,19,08,50,-1.40
2018,02,19,08,51,-1.40
2018,02,19,08,52,-1.40
2018,02,19,08,53,-1.50
2018,02,19,08,54,-1.50
2018,02,19,08,55,-1.50
2018,02,19,08,56,-1.60
2018,02,19,08,57,-1.60
2018,02,19,08,58,-1.60
2018,02,19,08,59,-1.70
2018,02,19,09,00,-1.70
2018,02,19,09,01,-1.70
2018,02,19,09,02,-1.70
2018,02,19,09,03,-1.60
2018,02,19,09,04,-1.60
2018,02,19,09,05,-1.60
2018,02,19,09,06,-1.60
2018,02,19,09,07,-1.60
2018,02,19,09,08,-1.60
2018,02,19,09,09,-1.60
2018,02,19,09,10,-1.60
2018,02,19,09,11,-1.60
2018,02,19,09,12,-1.60
2018,02,19,09,13,-1.60
2018,02,19,09,14,-1.60
2018,02,19,09,15,-1.60
2018,02,19,09,16,-1.60
2018,02,19,09,17,-1.60
2018,02,19,09,18,-1.50
2018,02,19,09,19,-1.50
2018,02,19,09,20,-1.50
2018,02,19,09,21,-1.50
2018,02,19,09,22,-1.40
2018,02,19,09,23,-1.40
2018,02,19,09,24,-1.30
2018,02,19,09,25,-1.30
2018,02,19,09,26,-1.30
2018,02,19,09,27,-1.30
2018,02,19,09,28,-1.20
2018,02,19,09,29,-1.20
2018,02,19,09,30,-1.20
2018,02,19,09,31,-1.20
2018,02,19,09,32,-1.10
2018,02,19,09,33,-1.10
2018,02,19,09,34,-1.10
2018,02,19,09,35,-1.20
2018,02,19,09,36,-1.20
2018,02,19,09,37,-1.20
2018,02,19,09,38,-1.20
2018,02,19,09,39,-1.20
2018,02,19,09,40,-1.20
2018,02,19,09,41,-1.20
2018,02,19,09,42,-1.20
2018,02,19,09,43,-1.20
2018,02,19,09,44,-1.10
2018,02,19,09,45,-1.10
2018,02,19,09,46,-1.10
2018,02,19,09,47,-1.10
2018,02,19,09,48,-1.20
2018,02,19,09,49,-1.20
2018,02,19,09,50,-1.20
2018,02,19,09,51,-1.20
2018,02,19,09,52,-1.20
2018,02,19,09,53,-1.20
2018,02,19,09,54,-1.20
2018,02,19,09,55,-1.20
2018,02,19,09,56,-1.20
2018,02,19,09,57,-1.20
2018,02,19,09,58,-1.20
2018,02,19,09,59,-1.20
2018,02,19,10,00,-1.20
2018,02,19,10,01,-1.20
2018,02,19,10,02,-1.20
2018,02,19,10,03,-1.20
2018,02,19,10,04,-1.20
2018,02,19,10,05,-1.10
2018,02,19,10,06,-1.10
2018,02,19,10,07,-1.10
2018,02,19,10,08,-1.00
2018,02,19,10,09,-1.00
2018,02,19,10,10,-1.00
2018,02,19,10,11,-0.90
2018,02,19,10,12,-0.90
2018,02,19,10,13,-0.90
2018,02,19,10,14,-0.90
2018,02,19,10,15,-0.90
2018,02,19,10,16,-0.90
2018,02,19,10,17,-0.90
2018,02,19,10,18,-0.90
2018,02,19,10,19,-0.90
2018,02,19,10,20,-0.90
2018,02,19,10,21,-0.90
2018,02,19,10,22,-0.80
2018,02,19,10,23,-0.80
2018,02,19,10,24,-0.80
2018,02,19,10,25,-0.80
2018,02,19,10,26,-0.90
2018,02,19,10,27,-0.90
2018,02,19,10,28,-0.90
2018,02,19,10,29,-1.00
2018,02,19,10,30,-1.00
2018,02,19,10,31,-1.00
2018,02,19,10,32,-1.00
2018,02,19,10,33,-1.00
2018,02,19,10,34,-0.90
2018,02,19,10,35,-0.90
2018,02,19,10,36,-0.90
2018,02,19,10,37,-0.90
2018,02,19,10,38,-0.90
2018,02,19,10,39,-0.80
2018,02,19,10,40,-0.80
2018,02,19,10,41,-0.80
2018,02,19,10,42,-0.80
2018,02,19,10,43,-0.80
2018,02,19,10,44,-0.70
2018,02,19,10,45,-0.60
2018,02,19,10,46,-0.60
2018,02,19,10,47,-0.50
2018,02,19,10,48,-0.40
2018,02,19,10,49,-0.30
2018,02,19,10,50,-0.40
2018,02,19,10,51,-0.40
2018,02,19,10,52,-0.40
2018,02,19,10,53,-0.40
2018,02,19,10,54,-0.40
2018,02,19,10,55,-0.30
2018,02,19,10,56,-0.30
2018,02,19,10,57,-0.30
2018,02,19,10,58,-0.30
2018,02,19,10,59,-0.30
2018,02,19,11,00,-0.30
2018,02,19,11,01,-0.30
2018,02,19,11,02,-0.30
2018,02,19,11,03,-0.40
2018,02,19,11,04,-0.40
2018,02,19,11,05,-0.50
2018,02,19,11,06,-0.60
2018,02,19,11,07,-0.60
2018,02,19,11,08,-0.60
2018,02,19,11,09,-0.60
2018,02,19,11,10,-0.60
2018,02,19,11,11,-0.60
2018,02,19,11,12,-0.60
2018,02,19,11,13,-0.60
2018,02,19,11,14,-0.50
2018,02,19,11,15,-0.60
2018,02,19,11,16,-0.50
2018,02,19,11,17,-0.50
2018,02,19,11,18,-0.50
2018,02,19,11,19,-0.40
2018,02,19,11,20,-0.40
2018,02,19,11,21,-0.40
2018,02,19,11,22,-0.40
2018,02,19,11,23,-0.40
2018,02,19,11,24,-0.40
2018,02,19,11,25,-0.50
2018,02,19,11,26,-0.60
2018,02,19,11,27,-0.70
2018,02,19,11,28,-0.80
2018,02,19,11,29,-0.80
2018,02,19,11,30,-0.80
2018,02,19,11,31,-0.80
2018,02,19,11,32,-0.80
2018,02,19,11,33,-0.80
2018,02,19,11,34,-0.80
2018,02,19,11,35,-0.70
2018,02,19,11,36,-0.80
2018,02,19,11,37,-0.80
2018,02,19,11,38,-0.90
2018,02,19,11,39,-0.90
2018,02,19,11,40,-0.90
2018,02,19,11,41,-0.90
2018,02,19,11,42,-0.80
2018,02,19,11,43,-0.80
2018,02,19,11,44,-0.80
2018,02,19,11,45,-0.80
2018,02,19,11,46,-0.80
2018,02,19,11,47,-0.80
2018,02,19,11,48,-0.80
2018,02,19,11,49,-0.80
2018,02,19,11,50,-0.80
2018,02,19,11,51,-0.80
2018,02,19,11,52,-0.70
2018,02,19,11,53,-0.60
2018,02,19,11,54,-0.50
2018,02,19,11,55,-0.40
2018,02,19,11,56,-0.30
2018,02,19,11,57,-0.30
2018,02,19,11,58,-0.30
2018,02,19,11,59,-0.30
2018,02,19,12,00,-0.30
2018,02,19,12,01,-0.30
2018,02,19,12,02,-0.30
2018,02,19,12,03,-0.30
2018,02,19,12,04,-0.30
2018,02,19,12,05,-0.30
2018,02,19,12,06,-0.30
2018,02,19,12,07,-0.30
2018,02,19,12,08,-0.30
2018,02,19,12,09,-0.30
2018,02,19,12,10,-0.30
2018,02,19,12,11,-0.30
2018,02,19,12,12,-0.30
2018,02,19,12,13,-0.30
2018,02,19,12,14,-0.30
2018,02,19,12,15,-0.30
2018,02,19,12,16,-0.40
2018,02,19,12,17,-0.40
2018,02,19,12,18,-0.50
2018,02,19,12,19,-0.50
2018,02,19,12,20,-0.50
2018,02,19,12,21,-0.50
2018,02,19,12,22,-0.50
2018,02,19,12,23,-0.40
2018,02,19,12,24,-0.40
2018,02,19,12,25,-0.40
2018,02,19,12,26,-0.30
2018,02,19,12,27,-0.30
2018,02,19,12,28,-0.20
2018,02,19,12,29,-0.20
2018,02,19,12,30,-0.20
2018,02,19,12,31,-0.20
2018,02,19,12,32,-0.20
2018,02,19,12,33,-0.20
2018,02,19,12,34,-0.20
2018,02,19,12,35,-0.20
2018,02,19,12,36,-0.20
2018,02,19,12,37,-0.20
2018,02,19,12,38,-0.20
2018,02,19,12,39,-0.30
2018,02,19,12,40,-0.30
2018,02,19,12,41,-0.30
2018,02,19,12,42,-0.30
2018,02,19,12,43,-0.30
2018,02,19,12,44,-0.30
2018,02,19,12,45,-0.20
2018,02,19,12,46,-0.20
2018,02,19,12,47,-0.20
2018,02,19,12,48,-0.20
2018,02,19,12,49,-0.20
2018,02,19,12,50,-0.10
2018,02,19,12,51,-0.10
2018,02,19,12,52,-0.10
2018,02,19,12,53,0.00
2018,02,19,12,54,0.00
2018,02,19,12,55,0.10
2018,02,19,12,56,0.20
2018,02,19,12,57,0.30
2018,02,19,12,58,0.30
2018,02,19,12,59,0.20
2018,02,19,13,00,0.20
2018,02,19,13,01,0.10
2018,02,19,13,02,0.00
2018,02,19,13,03,-0.10
2018,02,19,13,04,-0.10
2018,02,19,13,05,-0.20
2018,02,19,13,06,-0.20
2018,02,19,13,07,-0.20
2018,02,19,13,08,-0.10
2018,02,19,13,09,-0.10
2018,02,19,13,10,-0.10
2018,02,19,13,11,-0.10
2018,02,19,13,12,-0.10
2018,02,19,13,13,-0.10
2018,02,19,13,14,-0.10
2018,02,19,13,15,-0.10
2018,02,19,13,16,-0.10
2018,02,19,13,17,-0.10
2018,02,19,13,18,-0.10
2018,02,19,13,19,-0.10
2018,02,19,13,20,-0.10
2018,02,19,13,21,-0.10
2018,02,19,13,22,-0.20
2018,02,19,13,23,-0.20
2018,02,19,13,24,-0.20
2018,02,19,13,25,-0.20
2018,02,19,13,26,-0.20
2018,02,19,13,27,-0.20
2018,02,19,13,28,-0.20
2018,02,19,13,29,-0.30
2018,02,19,13,30,-0.30
2018,02,19,13,31,-0.30
2018,02,19,13,32,-0.30
2018,02,19,13,33,-0.30
2018,02,19,13,34,-0.30
2018,02,19,13,35,-0.30
2018,02,19,13,36,-0.30
2018,02,19,13,37,-0.20
2018,02,19,13,38,-0.20
2018,02,19,13,39,-0.10
2018,02,19,13,40,-0.10
2018,02,19,13,41,0.00
2018,02,19,13,42,0.00
2018,02,19,13,43,0.10
2018,02,19,13,44,0.10
2018,02,19,13,45,0.10
2018,02,19,13,46,0.10
2018,02,19,13,47,0.10
2018,02,19,13,48,0.20
2018,02,19,13,49,0.30
2018,02,19,13,50,0.30
2018,02,19,13,51,0.40
2018,02,19,13,52,0.40
2018,02,19,13,53,0.40
2018,02,19,13,54,0.40
2018,02,19,13,55,0.40
2018,02,19,13,56,0.40
2018,02,19,13,57,0.40
2018,02,19,13,58,0.50
2018,02,19,13,59,0.50
2018,02,19,14,00,0.50
2018,02,19,14,01,0.50
2018,02,19,14,02,0.40
2018,02,19,14,03,0.40
2018,02,19,14,04,0.30
2018,02,19,14,05,0.30
2018,02,19,14,06,0.30
2018,02,19,14,07,0.30
2018,02,19,14,08,0.20
2018,02,19,14,09,0.20
2018,02,19,14,10,0.20
2018,02,19,14,11,0.20
2018,02,19,14,12,0.20
2018,02,19,14,13,0.30
2018,02,19,14,14,0.30
2018,02,19,14,15,0.30
2018,02,19,14,16,0.20
2018,02,19,14,17,0.20
2018,02,19,14,18,0.20
2018,02,19,14,19,0.10
2018,02,19,14,20,0.10
2018,02,19,14,21,0.20
2018,02,19,14,22,0.20
2018,02,19,14,23,0.20
2018,02,19,14,24,0.30
2018,02,19,14,25,0.40
2018,02,19,14,26,0.40
2018,02,19,14,27,0.40
2018,02,19,14,28,0.40
2018,02,19,14,29,0.40
2018,02,19,14,30,0.40
2018,02,19,14,31,0.40
2018,02,19,14,32,0.40
2018,02,19,14,33,0.40
2018,02,19,14,34,0.40
2018,02,19,14,35,0.40
2018,02,19,14,36,0.40
2018,02,19,14,37,0.40
2018,02,19,14,38,0.40
2018,02,19,14,39,0.30
2018,02,19,14,40,0.30
2018,02,19,14,41,0.20
2018,02,19,14,42,0.20
2018,02,19,14,43,0.20
2018,02,19,14,44,0.20
2018,02,19,14,45,0.20
2018,02,19,14,46,0.30
2018,02,19,14,47,0.30
2018,02,19,14,48,0.30
2018,02,19,14,49,0.30
2018,02,19,14,50,0.30
2018,02,19,14,51,0.30
2018,02,19,14,52,0.30
2018,02,19,14,53,0.30
2018,02,19,14,54,0.20
2018,02,19,14,55,0.20
2018,02,19,14,56,0.20
2018,02,19,14,57,0.20
2018,02,19,14,58,0.20
2018,02,19,14,59,0.20
2018,02,19,15,00,0.20
2018,02,19,15,01,0.20
2018,02,19,15,02,0.20
2018,02,19,15,03,0.10
2018,02,19,15,04,0.10
2018,02,19,15,05,0.10
2018,02,19,15,06,0.10
2018,02,19,15,07,0.10
2018,02,19,15,08,0.10
2018,02,19,15,09,0.10
2018,02,19,15,10,0.10
2018,02,19,15,11,0.10
2018,02,19,15,12,0.00
2018,02,19,15,13,0.10
2018,02,19,15,14,0.10
2018,02,19,15,15,0.10
2018,02,19,15,16,0.10
2018,02,19,15,17,0.20
2018,02,19,15,18,0.20
2018,02,19,15,19,0.20
2018,02,19,15,20,0.20
2018,02,19,15,21,0.20
2018,02,19,15,22,0.20
2018,02,19,15,23,0.20
2018,02,19,15,24,0.20
2018,02,19,15,25,0.20
2018,02,19,15,26,0.20
2018,02,19,15,27,0.20
2018,02,19,15,28,0.20
2018,02,19,15,29,0.20
2018,02,19,15,30,0.20
2018,02,19,15,31,0.20
2018,02,19,15,32,0.20
2018,02,19,15,33,0.10
2018,02,19,15,34,0.10
2018,02,19,15,35,0.10
2018,02,19,15,36,0.10
2018,02,19,15,37,0.00
2018,02,19,15,38,0.00
2018,02,19,15,39,-0.10
2018,02,19,15,40,-0.10
2018,02,19,15,41,-0.10
2018,02,19,15,42,-0.10
2018,02,19,15,43,-0.10
2018,02,19,15,44,-0.10
2018,02,19,15,45,0.00
2018,02,19,15,46,0.00
2018,02,19,15,47,0.00
2018,02,19,15,48,0.00
2018,02,19,15,49,0.00
2018,02,19,15,50,0.10
2018,02,19,15,51,0.10
2018,02,19,15,52,0.00
2018,02,19,15,53,0.00
2018,02,19,15,54,0.00
2018,02,19,15,55,0.00
2018,02,19,15,56,0.00
2018,02,19,15,57,0.00
2018,02,19,15,58,0.00
2018,02,19,15,59,-0.10
2018,02,19,16,00,-0.10
2018,02,19,16,01,-0.10
2018,02,19,16,02,-0.10
2018,02,19,16,03,-0.10
2018,02,19,16,04,-0.10
2018,02,19,16,05,-0.10
2018,02,19,16,06,-0.10
2018,02,19,16,07,-0.10
2018,02,19,16,08,-0.10
2018,02,19,16,09,-0.10
2018,02,19,16,10,-0.10
2018,02,19,16,11,-0.10
2018,02,19,16,12,-0.10
2018,02,19,16,13,-0.20
2018,02,19,16,14,-0.20
2018,02,19,16,15,-0.20
2018,02,19,16,16,-0.20
2018,02,19,16,17,-0.20
2018,02,19,16,18,-0.20
2018,02,19,16,19,-0.20
2018,02,19,16,20,-0.20
2018,02,19,16,21,-0.20
2018,02,19,16,22,-0.20
2018,02,19,16,23,-0.20
2018,02,19,16,24,-0.20
2018,02,19,16,25,-0.20
2018,02,19,16,26,-0.20
2018,02,19,16,27,-0.20
2018,02,19,16,28,-0.10
2018,02,19,16,29,-0.10
2018,02,19,16,30,-0.10
2018,02,19,16,31,0.00
2018,02,19,16,32,0.00
2018,02,19,16,33,0.00
2018,02,19,16,34,0.00
2018,02,19,16,35,0.00
2018,02,19,16,36,0.00
2018,02,19,16,37,-0.10
2018,02,19,16,38,-0.10
2018,02,19,16,39,-0.10
2018,02,19,16,40,-0.10
2018,02,19,16,41,-0.10
2018,02,19,16,42,-0.10
2018,02,19,16,43,-0.10
2018,02,19,16,44,-0.20
2018,02,19,16,45,-0.20
2018,02,19,16,46,-0.30
2018,02,19,16,47,-0.30
2018,02,19,16,48,-0.30
2018,02,19,16,49,-0.30
2018,02,19,16,50,-0.30
2018,02,19,16,51,-0.40
2018,02,19,16,52,-0.40
2018,02,19,16,53,-0.40
2018,02,19,16,54,-0.50
2018,02,19,16,55,-0.50
2018,02,19,16,56,-0.50
2018,02,19,16,57,-0.60
2018,02,19,16,58,-0.60
2018,02,19,16,59,-0.60
2018,02,19,17,00,-0.60
2018,02,19,17,01,-0.70
2018,02,19,17,02,-0.70
2018,02,19,17,03,-0.70
2018,02,19,17,04,-0.70
2018,02,19,17,05,-0.80
2018,02,19,17,06,-0.80
2018,02,19,17,07,-0.80
2018,02,19,17,08,-0.80
2018,02,19,17,09,-0.80
2018,02,19,17,10,-0.90
2018,02,19,17,11,-0.90
2018,02,19,17,12,-0.90
2018,02,19,17,13,-0.90
2018,02,19,17,14,-0.90
2018,02,19,17,15,-0.90
2018,02,19,17,16,-0.90
2018,02,19,17,17,-1.00
2018,02,19,17,18,-1.00
2018,02,19,17,19,-1.00
2018,02,19,17,20,-1.10
2018,02,19,17,21,-1.10
2018,02,19,17,22,-1.10
2018,02,19,17,23,-1.10
2018,02,19,17,24,-1.20
2018,02,19,17,25,-1.20